Location: G�migny
(47.9646°N, 1.6950°E)
Time: 13:02:28
(UTC+00:00)

CENTAUR R/B - Pass Details

Date: 23 October 2019
Orbit: 779 x 1409 km, 63.4° (Epoch: 19 November)

Event Time Altitude Azimuth Distance (km) Brightness Sun altitude
Rises 20:37:11 0° 252° (WSW) 3,550 5.9 -37.7°
Reaches altitude 10° 20:39:44 10° 260° (W) 2,691 5.3 -38.1°
Maximum altitude 20:45:40 40° 329° (NNW) 1,529 3.7 -38.9°
Enters shadow 20:45:42 40° 330° (NNW) 1,530 3.7 -38.9°
